Location: Costa Valle Imagna
(45.8000°N, 9.5000°E)
Time: 06:05:06
(UTC+00:00)

Cosmos 2173 Rocket - Pass Details

Date: 17 February 2020
Orbit: 944 x 1002 km, 83.0° (Epoch: 09 April)

Event Time Altitude Azimuth Distance (km) Brightness Sun altitude
Rises 04:40:54 0° 352° (N) 3,720 7.0 -18.3°
Reaches altitude 10° 04:43:28 10° 354° (N) 2,761 6.3 -17.8°
Maximum altitude 04:49:49 79° 81° (E) 1,002 4.1 -16.7°
Drops below altitude 10° 04:56:01 10° 168° (SSE) 2,702 6.5 -15.6°
Sets 04:58:30 0° 170° (S) 3,637 7.2 -15.2°
